| time (UTC) | temp F | wind direction | speed MPH | gust MPH | rain 1hr in | rain 24hr in | rain mn in | humidity % | barometer mb |
| 20260502122003 | 33 | 253 | 2.0 | 3.0 | 0.00 | 0.00 | 0.00 | 85 | 1024.7 |
| 20260502121003 | 33 | 233 | 1.0 | 3.0 | 0.00 | 0.00 | 0.00 | 84 | 1024.7 |
| 20260502115004 | 31 | 240 | 2.0 | 3.0 | 0.00 | 0.00 | 0.00 | 83 | 1024.7 |
| 20260502114003 | 31 | 242 | 2.0 | 3.0 | 0.00 | 0.00 | 0.00 | 82 | 1024.6 |
| 20260502113004 | 32 | 237 | 2.0 | 3.0 | 0.00 | 0.00 | 0.00 | 82 | 1024.5 |
| 20260502112004 | 31 | 237 | 2.0 | 3.0 | 0.00 | 0.00 | 0.00 | 82 | 1024.5 |
| 20260502111003 | 31 | 244 | 2.0 | 3.0 | 0.00 | 0.00 | 0.00 | 83 | 1024.5 |
| 20260502110004 | 31 | 247 | 2.0 | 3.0 | 0.00 | 0.00 | 0.00 | 84 | 1024.5 |
| 20260502104003 | 31 | 238 | 1.0 | 3.0 | 0.00 | 0.00 | 0.00 | 84 | 1024.6 |
| 20260502103003 | 31 | 238 | 1.0 | 3.0 | 0.00 | 0.00 | 0.00 | 84 | 1024.6 |
| 20260502102003 | 31 | 237 | 2.0 | 3.0 | 0.00 | 0.00 | 0.00 | 85 | 1024.6 |
| 20260502101004 | 31 | 244 | 1.0 | 3.0 | 0.00 | 0.00 | 0.00 | 85 | 1024.5 |
| 20260502091003 | 30 | 222 | 1.0 | 3.0 | 0.00 | 0.00 | 0.00 | 86 | 1024.3 |
| 20260502071003 | 29 | 240 | 2.0 | 3.0 | 0.00 | 0.00 | 0.00 | 92 | 1024.4 |
| 20260502070003 | 29 | 246 | 2.0 | 3.0 | 0.00 | 0.00 | 0.00 | 91 | 1024.4 |
| 20260502065003 | 29 | 238 | 2.0 | 3.0 | 0.00 | 0.00 | 0.00 | 91 | 1024.4 |
| 20260502064003 | 28 | 244 | 1.0 | 2.0 | 0.00 | 0.00 | 0.00 | 90 | 1024.5 |
| 20260502063003 | 29 | 242 | 1.0 | 3.0 | 0.00 | 0.00 | 0.00 | 89 | 1024.5 |
| 20260502062004 | 30 | 66 | 0.0 | 1.0 | 0.00 | 0.00 | 0.00 | 91 | 1024.4 |
| 20260502061003 | 30 | 102 | 0.0 | 2.0 | 0.00 | 0.00 | 0.00 | 89 | 1024.5 |
| 20260502060003 | 30 | 250 | 2.0 | 3.0 | 0.00 | 0.00 | 0.00 | 88 | 1024.4 |
| 20260502055003 | 31 | 259 | 0.0 | 1.0 | 0.00 | 0.00 | 0.00 | 89 | 1024.4 |
| 20260502054003 | 31 | 229 | 1.0 | 2.0 | 0.00 | 0.00 | 0.00 | 89 | 1024.4 |
| 20260502053003 | 31 | 234 | 1.0 | 2.0 | 0.00 | 0.00 | 0.00 | 88 | 1024.4 |
| 20260502052003 | 31 | 230 | 1.0 | 3.0 | 0.00 | 0.00 | 0.00 | 88 | 1024.3 |
| 20260502045003 | 31 | 236 | 2.0 | 3.0 | 0.00 | 0.00 | 0.00 | 89 | 1024.3 |
| 20260502044003 | 30 | 253 | 1.0 | 2.0 | 0.00 | 0.00 | 0.00 | 88 | 1024.2 |
| 20260502043003 | 31 | 251 | 1.0 | 2.0 | 0.00 | 0.00 | 0.00 | 87 | 1024.2 |
| 20260502041003 | 32 | 197 | 0.0 | 1.0 | 0.00 | 0.00 | 0.00 | 85 | 1024.1 |
| 20260502040003 | 32 | 98 | 0.0 | 1.0 | 0.00 | 0.00 | 0.00 | 84 | 1024.0 |
| 20260502035003 | 32 | 162 | 0.0 | 3.0 | 0.00 | 0.00 | 0.00 | 84 | 1024.0 |
| 20260502034004 | 33 | 235 | 2.0 | 3.0 | 0.00 | 0.00 | 0.00 | 83 | 1024.1 |
| 20260502033003 | 34 | 239 | 1.0 | 2.0 | 0.00 | 0.00 | 0.00 | 81 | 1024.0 |
| 20260502032003 | 34 | 121 | 1.0 | 2.0 | 0.00 | 0.00 | 0.00 | 80 | 1024.0 |
| 20260502031003 | 35 | 74 | 0.0 | 1.0 | 0.00 | 0.00 | 0.00 | 79 | 1024.0 |
| 20260502030003 | 36 | 120 | 0.0 | 1.0 | 0.00 | 0.00 | 0.00 | 79 | 1023.9 |
| 20260502025003 | 36 | 125 | 0.0 | 1.0 | 0.00 | 0.00 | 0.00 | 77 | 1023.9 |
| 20260502024004 | 38 | 2 | 0.0 | 2.0 | 0.00 | 0.00 | 0.00 | 76 | 1023.8 |
| 20260502023003 | 39 | 339 | 1.0 | 1.0 | 0.00 | 0.00 | 0.00 | 73 | 1023.8 |
| 20260502022003 | 40 | 341 | 0.0 | 1.0 | 0.00 | 0.00 | 0.00 | 69 | 1023.7 |
| 20260502021003 | 40 | 326 | 1.0 | 2.0 | 0.00 | 0.00 | 0.00 | 66 | 1023.6 |
| 20260502020003 | 41 | 55 | 1.0 | 3.0 | 0.00 | 0.00 | 0.00 | 64 | 1023.4 |
| 20260502015003 | 42 | 60 | 0.0 | 2.0 | 0.00 | 0.00 | 0.00 | 62 | 1023.3 |
| 20260502014003 | 43 | 343 | 0.0 | 3.0 | 0.00 | 0.00 | 0.00 | 59 | 1023.2 |
| 20260502013003 | 45 | 31 | 0.0 | 3.0 | 0.00 | 0.00 | 0.00 | 57 | 1023.1 |
| 20260502012003 | 46 | 74 | 1.0 | 3.0 | 0.00 | 0.00 | 0.00 | 54 | 1023.0 |
| 20260502011003 | 47 | 95 | 1.0 | 3.0 | 0.00 | 0.00 | 0.00 | 52 | 1023.0 |
| 20260502010003 | 48 | 31 | 1.0 | 3.0 | 0.00 | 0.00 | 0.00 | 49 | 1022.9 |
| 20260502005003 | 49 | 14 | 1.0 | 9.0 | 0.00 | 0.00 | 0.00 | 49 | 1022.8 |
| 20260502003008 | 50 | 74 | 3.0 | 7.0 | 0.00 | 0.00 | 0.00 | 46 | 1022.7 |
| 20260502002003 | 50 | 51 | 3.0 | 8.0 | 0.00 | 0.00 | 0.00 | 46 | 1022.7 |
| 20260502001003 | 49 | 110 | 2.0 | 12.0 | 0.00 | 0.00 | 0.00 | 49 | 1022.7 |
| 20260501235003 | 49 | 323 | 3.0 | 7.0 | 0.00 | 0.00 | 0.00 | 49 | 1022.6 |
| 20260501234003 | 48 | 328 | 2.0 | 8.0 | 0.00 | 0.00 | 0.00 | 47 | 1022.7 |
| 20260501233004 | 49 | 326 | 4.0 | 12.0 | 0.00 | 0.00 | 0.00 | 46 | 1022.6 |
| 20260501231004 | 52 | 308 | 8.0 | 20.0 | 0.00 | 0.00 | 0.00 | 45 | 1022.4 |
| 20260501225004 | 50 | 77 | 2.0 | 12.0 | 0.00 | 0.00 | 0.00 | 49 | 1022.6 |
| 20260501223004 | 50 | 321 | 6.0 | 10.0 | 0.00 | 0.00 | 0.00 | 44 | 1022.6 |
| 20260501222004 | 52 | 100 | 2.0 | 10.0 | 0.00 | 0.00 | 0.00 | 46 | 1022.6 |
| 20260501221004 | 52 | 73 | 4.0 | 14.0 | 0.00 | 0.00 | 0.00 | 48 | 1022.5 |
| 20260501220003 | 50 | 317 | 3.0 | 12.0 | 0.00 | 0.00 | 0.00 | 49 | 1022.6 |
| 20260501215003 | 50 | 83 | 3.0 | 8.0 | 0.00 | 0.00 | 0.00 | 47 | 1022.5 |
| 20260501214004 | 51 | 96 | 6.0 | 12.0 | 0.00 | 0.00 | 0.00 | 45 | 1022.6 |
| 20260501213004 | 51 | 56 | 3.0 | 15.0 | 0.00 | 0.00 | 0.00 | 49 | 1022.7 |
| 20260501212004 | 50 | 328 | 7.0 | 15.0 | 0.00 | 0.00 | 0.00 | 46 | 1022.6 |
| 20260501211003 | 50 | 312 | 9.0 | 15.0 | 0.00 | 0.00 | 0.00 | 48 | 1022.7 |
| 20260501210003 | 51 | 61 | 5.0 | 15.0 | 0.00 | 0.00 | 0.00 | 47 | 1022.6 |
| 20260501204004 | 53 | 89 | 3.0 | 12.0 | 0.00 | 0.00 | 0.00 | 49 | 1022.7 |
| 20260501203004 | 53 | 308 | 5.0 | 12.0 | 0.00 | 0.00 | 0.00 | 46 | 1022.7 |
| 20260501202004 | 52 | 84 | 3.0 | 16.0 | 0.00 | 0.00 | 0.00 | 52 | 1022.8 |
| 20260501201004 | 50 | 8 | 3.0 | 10.0 | 0.00 | 0.00 | 0.00 | 52 | 1022.9 |
| 20260501200003 | 49 | 83 | 3.0 | 13.0 | 0.00 | 0.00 | 0.00 | 52 | 1023.0 |
| 20260501195004 | 49 | 329 | 5.0 | 14.0 | 0.00 | 0.00 | 0.00 | 48 | 1022.9 |
| 20260501194004 | 50 | 316 | 10.0 | 18.0 | 0.00 | 0.00 | 0.00 | 50 | 1022.9 |
| 20260501193004 | 50 | 115 | 4.0 | 15.0 | 0.00 | 0.00 | 0.00 | 50 | 1022.9 |
| 20260501192004 | 50 | 49 | 4.0 | 12.0 | 0.00 | 0.00 | 0.00 | 49 | 1022.9 |
| 20260501191004 | 49 | 319 | 3.0 | 15.0 | 0.00 | 0.00 | 0.00 | 49 | 1023.0 |
| 20260501190004 | 50 | 318 | 8.0 | 15.0 | 0.00 | 0.00 | 0.00 | 51 | 1023.0 |
| 20260501185003 | 48 | 47 | 5.0 | 18.0 | 0.00 | 0.00 | 0.00 | 53 | 1022.9 |
| 20260501183004 | 48 | 316 | 5.0 | 13.0 | 0.00 | 0.00 | 0.00 | 52 | 1023.0 |
| 20260501182004 | 48 | 4 | 6.0 | 16.0 | 0.00 | 0.00 | 0.00 | 52 | 1023.1 |
| 20260501181003 | 48 | 30 | 7.0 | 13.0 | 0.00 | 0.00 | 0.00 | 55 | 1023.0 |
| 20260501180003 | 48 | 319 | 9.0 | 13.0 | 0.00 | 0.00 | 0.00 | 52 | 1023.1 |
| 20260501174003 | 47 | 81 | 2.0 | 12.0 | 0.00 | 0.00 | 0.00 | 56 | 1023.2 |
| 20260501173003 | 46 | 355 | 10.0 | 20.0 | 0.00 | 0.00 | 0.00 | 54 | 1023.2 |
| 20260501172004 | 47 | 300 | 10.0 | 17.0 | 0.00 | 0.00 | 0.00 | 54 | 1023.2 |
| 20260501170004 | 47 | 46 | 5.0 | 17.0 | 0.00 | 0.00 | 0.00 | 57 | 1023.1 |
| 20260501165003 | 47 | 335 | 4.0 | 15.0 | 0.00 | 0.00 | 0.00 | 60 | 1023.0 |
| 20260501164004 | 47 | 332 | 5.0 | 14.0 | 0.00 | 0.00 | 0.00 | 58 | 1022.8 |
| 20260501163003 | 47 | 317 | 10.0 | 20.0 | 0.00 | 0.00 | 0.00 | 56 | 1022.8 |
| 20260501162004 | 47 | 57 | 6.0 | 14.0 | 0.00 | 0.00 | 0.00 | 61 | 1022.8 |
| 20260501161004 | 47 | 67 | 4.0 | 20.0 | 0.00 | 0.00 | 0.00 | 60 | 1022.8 |
| 20260501160003 | 46 | 327 | 4.0 | 20.0 | 0.00 | 0.00 | 0.00 | 60 | 1022.8 |
| 20260501155003 | 46 | 325 | 9.0 | 18.0 | 0.00 | 0.00 | 0.00 | 65 | 1022.7 |
| 20260501154003 | 45 | 319 | 12.0 | 20.0 | 0.00 | 0.00 | 0.00 | 64 | 1022.8 |
| 20260501152003 | 45 | 337 | 9.0 | 18.0 | 0.00 | 0.00 | 0.00 | 69 | 1022.7 |
| 20260501151004 | 44 | 319 | 9.0 | 18.0 | 0.00 | 0.00 | 0.00 | 73 | 1022.6 |